Location: ???????
(55.4362°N, 38.1183°E)
Time: 13:10:39
(UTC+00:00)

Cosmos 2219 Rocket - Pass Details

Date: 25 October 2021
Orbit: 826 x 848 km, 71.0° (Epoch: 01 December)

Event Time Altitude Azimuth Distance (km) Brightness Sun altitude
Exits shadow 23:23:15 23° 27° (NNE) 1,727 4.2 -40.0°
Drops below altitude 10° 23:27:34 10° 77° (ENE) 2,469 5.1 -39.5°
Sets 23:30:33 0° 92° (E) 3,405 5.8 -39.2°
